GFSSE_sfc_dewp_198.txt.gz
Dewpoint
70 72 76 76 75 75 76 76 75 75 76 76 76 75 75 75 75 76 75 75 76 75 76 75 74 73 73 74 74 74 74 74 74 73 73 72 71 73 73 73 73 71 73
71 73 77 77 76 75 76 76 75 76 76 75 75 75 75 75 74 75 76 75 75 73 74 74 73 74 74 74 73 73 73 74 74 74 72 73 72 70 73 73 73 72 72
72 73 75 78 77 75 76 76 75 75 75 76 76 76 75 75 74 76 75 74 74 73 73 73 74 73 73 73 73 73 73 75 73 70 68 68 70 72 73 74 73 72 72
71 73 75 77 77 76 76 76 76 76 76 76 75 75 75 73 73 75 74 73 73 73 73 73 73 72 71 72 72 72 72 74 74 71 66 65 67 72 72 73 73 71 73
71 73 75 77 77 76 76 77 76 75 75 75 75 75 74 74 75 75 74 75 73 73 73 72 72 71 71 70 71 71 72 74 72 69 68 68 68 71 73 73 73 71 72
71 73 77 77 76 76 76 76 76 75 74 75 75 74 74 75 73 73 74 74 73 73 72 72 70 70 71 72 72 72 72 75 73 68 67 68 69 72 74 73 73 71 73
73 75 75 78 77 76 75 75 75 75 75 75 74 73 74 74 74 73 73 73 72 72 71 71 71 71 71 72 72 74 73 75 70 66 65 67 66 71 74 74 73 72 74
74 75 74 77 77 75 75 75 74 73 75 75 75 73 73 73 73 73 73 73 72 72 71 72 72 73 73 74 75 76 76 75 72 67 66 66 67 69 74 75 75 73 73
73 73 74 74 75 76 75 74 75 73 72 73 74 75 73 73 74 74 74 73 72 73 73 73 74 75 76 76 77 76 77 75 71 69 69 68 70 73 75 75 74 74 73
71 73 73 74 74 72 71 73 75 74 72 72 73 74 73 73 73 73 75 75 74 74 74 75 76 78 78 78 78 78 78 77 73 69 69 68 72 73 75 75 74 74 74
70 72 72 74 73 70 70 70 73 73 73 73 73 74 73 72 72 72 73 74 74 74 75 77 77 77 77 77 78 78 78 76 73 69 68 70 73 75 76 76 76 75 74
68 70 72 73 72 70 71 73 74 71 72 72 73 72 72 70 67 72 74 75 75 76 77 74 75 75 75 72 70 71 63 69 73 71 67 71 75 75 76 77 76 76 74
68 69 71 72 70 68 69 73 73 73 72 72 72 73 72 72 72 72 73 72 73 74 74 70 70 69 70 69 68 65 63 66 68 69 69 73 76 75 76 76 76 75 75
67 68 70 70 67 66 69 71 72 70 70 71 72 71 72 72 72 72 72 71 71 71 72 71 71 71 70 70 69 68 65 63 66 67 70 75 75 76 75 75 75 74 74
66 67 68 67 66 65 67 69 70 70 70 71 72 72 71 70 71 71 71 69 69 70 71 71 71 71 71 70 67 67 66 64 64 66 71 76 76 76 75 75 75 74 74
64 67 66 65 65 66 67 68 69 70 70 71 72 65 67 71 72 70 70 69 70 70 68 71 71 70 71 68 67 68 65 64 63 65 69 73 76 76 76 76 75 75 73
63 65 63 66 68 69 70 72 70 70 70 71 72 70 68 71 68 71 70 71 70 70 71 70 72 72 68 69 68 68 67 64 63 64 67 70 73 75 75 75 75 73 72
65 64 65 66 67 72 71 71 70 70 69 69 71 71 71 70 70 71 70 70 71 71 71 71 71 70 69 70 69 67 64 64 63 64 66 67 71 70 74 74 73 73 71
65 65 65 66 67 71 70 72 71 70 71 69 71 71 70 69 69 69 68 70 71 69 71 72 71 70 69 70 69 67 64 64 62 65 64 65 68 68 67 72 71 71 70
65 65 65 66 68 71 71 72 70 70 70 69 70 71 70 69 69 68 69 69 71 69 70 72 70 72 71 69 68 66 63 64 64 64 66 65 67 66 63 65 66 67 71
65 65 65 66 68 71 70 72 71 68 68 68 69 71 70 70 69 70 69 68 70 71 70 72 70 69 70 68 66 63 63 64 64 64 66 65 67 67 65 66 66 65 67
65 64 67 66 68 70 70 71 70 70 69 69 68 71 70 70 71 70 69 68 70 71 70 71 71 70 70 68 64 63 58 60 62 64 67 68 66 67 67 67 64 62 64
65 65 68 67 68 70 71 70 70 70 71 70 69 70 72 71 70 71 70 69 69 72 72 70 71 71 70 70 66 64 60 56 62 64 65 68 68 67 67 68 68 68 64
64 66 66 69 69 70 71 70 68 68 68 69 69 70 71 72 69 70 70 72 72 73 72 72 73 72 71 69 68 69 65 63 61 62 65 66 67 67 67 68 67 66 66
63 66 67 69 69 69 69 70 68 67 68 68 69 69 70 71 71 72 72 72 73 73 73 73 72 71 72 69 68 66 64 65 65 64 62 64 66 66 67 67 66 64 62
62 65 67 68 70 69 68 68 68 68 68 68 67 66 68 71 72 72 72 72 72 73 73 73 72 72 72 71 70 67 66 65 65 65 63 63 63 64 63 63 63 61 61

GFSSE_sfc_dewp_201.txt.gz
Dewpoint
70 72 75 75 75 76 75 75 75 76 76 76 75 76 75 75 75 75 75 75 75 74 74 74 73 73 73 73 73 74 74 73 72 72 72 73 73 73 74 74 73 72 73
71 72 76 76 76 76 76 75 76 75 75 76 75 76 74 75 75 75 75 74 74 75 74 73 75 74 73 73 73 73 73 74 73 73 73 71 71 72 72 73 72 71 71
71 73 75 77 76 76 76 75 75 75 76 75 75 75 74 75 75 76 74 73 73 72 73 74 74 74 74 73 73 73 74 73 72 70 67 71 71 71 73 73 73 72 71
72 74 76 77 76 75 76 76 75 75 75 75 75 75 73 74 75 75 73 73 73 72 73 73 73 72 72 72 72 72 73 73 73 72 68 66 68 72 73 74 72 71 71
73 75 75 76 76 75 76 76 76 75 76 75 75 74 74 75 75 73 74 73 73 73 72 72 72 71 71 71 71 72 72 74 73 70 67 68 67 71 72 73 72 71 72
73 74 75 76 75 75 76 76 75 73 74 75 74 74 75 74 74 74 74 73 72 72 72 71 70 70 71 71 71 72 72 74 75 68 66 67 67 69 73 72 72 70 72
73 75 75 77 76 76 75 76 75 74 75 75 73 73 75 73 73 74 73 73 72 71 71 71 71 71 71 71 71 73 73 74 74 69 68 67 69 70 73 72 73 71 73
74 75 75 76 76 75 75 74 74 75 75 75 72 73 73 73 73 72 72 72 72 71 71 71 72 73 73 74 75 76 75 75 74 68 65 66 66 69 73 73 74 72 73
74 74 75 74 74 74 74 75 72 73 75 75 75 74 72 73 73 73 73 73 73 73 73 73 74 75 75 76 76 77 77 75 73 69 68 66 67 68 71 75 75 74 73
73 74 73 74 75 74 71 76 74 71 73 73 74 73 73 72 73 72 74 74 73 74 74 75 75 77 77 77 77 77 78 77 74 71 69 68 71 73 73 75 75 74 74
72 73 73 73 72 71 69 72 74 72 72 73 73 73 72 72 71 72 73 74 74 75 75 76 75 76 77 76 76 76 75 76 74 72 69 69 70 73 74 75 75 75 74
70 71 72 72 70 69 70 69 71 71 71 72 72 72 72 70 65 71 73 75 76 75 76 77 74 74 73 70 67 68 63 71 74 72 70 71 71 73 75 77 76 76 74
69 70 72 72 70 69 70 73 73 72 72 72 72 72 71 72 72 72 73 72 71 73 73 72 70 70 69 70 69 68 64 67 71 72 71 72 73 74 75 77 77 76 75
68 69 71 72 70 68 69 72 72 72 71 71 71 71 70 71 71 71 71 71 70 71 70 71 70 70 70 69 69 68 65 63 67 68 69 74 75 75 75 76 75 74 74
68 68 70 71 68 67 68 70 71 70 70 70 71 71 71 71 69 71 71 70 69 69 70 70 70 71 70 69 67 68 65 64 63 66 69 75 75 75 75 75 74 74 74
67 68 69 69 67 66 67 68 69 70 69 69 70 71 71 69 71 70 70 69 68 69 70 69 71 70 70 69 68 68 67 64 63 64 67 71 75 75 75 75 75 75 74
66 68 67 66 65 65 66 66 68 69 69 70 70 71 65 69 71 69 69 68 70 70 70 70 71 72 69 70 69 68 65 64 62 64 66 70 72 75 75 75 74 74 73
65 67 66 66 66 67 67 68 70 69 69 70 70 71 68 70 70 71 71 70 71 70 71 70 71 70 69 69 70 69 64 64 63 64 66 67 69 70 73 74 73 73 72
64 66 64 65 67 71 69 71 70 70 69 69 69 70 71 71 70 70 68 69 70 69 71 71 71 69 68 70 69 68 65 64 62 64 64 65 68 69 68 71 73 72 69
65 65 64 66 66 71 70 72 70 70 70 69 70 71 70 70 69 68 68 68 69 69 68 71 70 71 71 69 68 66 64 64 63 65 66 66 68 68 66 66 67 68 71
65 64 64 65 66 70 70 71 70 67 68 68 68 69 71 69 69 69 69 68 68 70 70 71 70 69 69 68 67 65 63 62 63 65 66 65 66 66 66 65 66 66 66
64 64 64 65 66 69 69 71 70 69 68 68 68 69 71 70 69 69 70 68 68 69 70 70 71 70 70 68 66 63 61 60 60 66 67 67 66 67 67 66 66 65 64
64 64 65 65 66 68 69 70 70 70 69 69 69 69 70 70 70 70 70 69 68 69 70 71 70 70 69 68 66 65 62 58 60 64 66 67 67 67 67 67 67 67 66
63 64 65 66 67 68 70 69 69 68 67 68 68 69 69 71 70 69 71 70 69 70 71 71 72 71 70 69 68 68 65 63 61 61 65 66 67 66 66 67 67 67 65
63 64 65 67 67 68 69 68 68 68 67 68 68 69 69 70 71 70 70 69 70 72 73 72 71 71 71 69 68 66 64 64 64 62 62 63 65 64 63 65 65 62 62
62 64 65 68 67 68 69 69 68 67 67 67 67 67 67 68 70 71 71 71 71 72 72 72 72 71 71 71 69 67 66 65 64 64 62 62 62 62 59 60 60 59 60

GFSSE_sfc_dewp_207.txt.gz
Dewpoint
72 74 76 76 75 75 75 76 76 76 76 76 76 75 75 75 75 74 75 74 74 74 73 73 73 73 73 73 74 73 72 72 72 72 72 73 73 72 72 72 72 67 72
72 72 76 76 75 75 76 76 75 76 76 75 75 75 75 75 75 75 75 74 73 73 74 73 73 73 73 73 73 73 74 73 73 73 71 71 72 72 72 72 72 70 72
71 71 74 77 75 76 75 75 75 75 75 75 75 75 75 74 75 73 73 74 72 74 74 73 73 73 73 73 73 73 73 72 72 70 70 69 69 71 72 72 72 71 71
69 70 72 77 76 75 75 75 75 75 75 75 74 75 75 74 74 73 73 72 73 73 73 73 73 72 72 72 72 72 72 73 73 72 68 64 66 71 71 73 73 71 71
70 70 73 76 76 76 75 75 75 75 75 74 72 74 74 73 73 73 73 73 73 73 73 72 71 71 71 71 71 72 72 72 72 72 70 68 67 66 72 73 72 71 71
70 68 74 76 76 76 75 76 76 75 75 73 74 75 75 74 74 73 73 73 72 72 72 71 71 71 71 72 72 72 72 72 73 72 72 69 67 65 71 72 72 71 71
71 68 71 77 76 76 75 74 74 75 75 74 75 74 73 73 74 73 73 72 71 71 71 71 72 72 73 74 75 75 75 74 72 71 72 66 68 68 70 73 72 72 71
71 70 72 76 76 75 75 73 74 74 74 73 74 74 73 73 73 72 72 72 72 72 73 74 75 75 75 75 77 77 77 75 71 71 72 68 69 69 71 72 73 73 72
71 71 72 73 75 75 75 74 75 75 73 72 73 72 73 73 73 72 73 73 73 74 75 75 76 76 76 77 77 78 78 77 72 71 71 69 69 68 69 69 73 73 73
71 72 73 73 72 72 70 73 75 75 75 75 74 73 73 73 73 73 74 73 75 75 75 75 76 75 77 77 78 77 75 74 70 71 72 70 69 70 72 73 72 74 73
70 72 73 72 73 73 74 70 72 74 73 73 72 73 73 72 71 70 72 74 75 75 75 75 75 75 76 75 74 74 72 66 69 70 71 73 72 72 72 73 74 75 73
68 70 71 73 72 71 72 72 71 70 70 72 72 74 72 72 72 72 72 74 73 73 74 74 74 73 74 70 67 71 63 64 66 70 70 73 73 73 72 74 74 75 74
69 69 71 73 74 70 69 71 69 70 71 72 74 74 74 73 73 72 72 71 72 70 68 70 70 70 72 70 68 68 66 63 63 64 69 73 74 74 73 74 75 75 75
69 69 70 73 73 70 68 69 69 70 71 71 72 74 74 72 73 74 72 72 73 70 72 71 70 72 72 72 70 70 66 66 64 64 67 72 74 74 73 74 74 75 75
69 69 70 73 73 70 71 70 70 71 70 70 72 73 73 73 73 73 73 71 71 70 70 72 71 72 73 72 70 71 69 66 65 64 65 70 74 74 74 74 75 75 74
68 68 70 72 72 70 70 73 72 71 71 71 72 73 74 73 73 73 72 71 71 73 73 72 73 73 73 71 70 72 71 68 65 65 64 66 72 75 75 74 74 74 74
68 67 69 71 70 70 70 72 71 70 69 71 72 73 73 74 73 75 72 72 73 73 75 73 74 74 73 71 72 71 70 70 67 66 66 66 67 72 74 74 74 73 73
68 68 70 68 70 70 70 70 68 69 71 71 72 72 73 73 72 74 71 71 72 73 73 73 73 73 72 72 72 71 71 70 68 67 66 67 68 66 71 72 73 73 71
69 70 71 71 70 70 70 69 70 71 71 72 72 71 74 73 72 73 72 72 73 71 72 76 73 74 72 72 70 70 71 68 66 65 68 68 69 68 68 70 70 72 70
69 70 71 71 71 72 69 71 70 71 73 73 72 72 73 72 73 74 72 73 72 70 70 72 75 73 73 72 70 70 70 66 66 67 67 66 69 69 68 69 68 67 69
68 69 71 71 72 71 69 68 69 70 71 71 72 73 74 73 73 74 72 72 72 72 72 74 73 73 77 74 71 66 66 67 65 65 68 68 69 69 70 69 69 68 66
67 69 71 71 72 71 69 71 71 72 70 71 72 73 73 73 73 73 74 72 73 71 74 73 75 74 75 75 72 69 61 61 62 67 69 69 69 67 67 68 70 69 68
66 68 70 71 72 71 72 72 73 73 72 70 70 70 71 73 74 74 74 73 74 73 70 73 75 73 71 72 73 72 62 58 61 65 68 69 68 66 68 69 70 70 70
65 67 70 71 72 71 73 73 74 69 68 69 70 70 71 73 73 73 75 75 75 73 74 75 75 76 75 72 72 71 71 69 61 59 65 67 66 66 66 64 63 63 64
65 66 67 70 72 72 73 73 72 73 69 69 70 73 74 74 73 72 74 75 75 73 75 75 76 75 77 77 75 72 70 68 68 67 60 64 67 59 57 58 57 56 59
64 65 66 70 72 72 72 73 74 74 73 69 70 69 69 69 70 73 73 74 75 75 75 75 76 77 77 76 77 75 74 69 69 67 63 67 66 59 56 55 55 54 54

GFSSE_sfc_dewp_210.txt.gz
Dewpoint
70 71 75 76 75 75 76 75 75 75 75 75 75 75 75 75 75 75 75 74 74 73 73 73 73 73 74 74 74 73 73 73 72 72 73 73 72 72 72 72 71 65 73
69 70 75 76 76 76 76 76 75 76 75 75 75 75 75 75 74 75 74 74 73 73 74 73 74 73 73 73 73 73 73 73 72 72 70 71 72 72 71 71 72 69 72
66 70 72 76 76 76 75 75 76 76 75 75 75 74 74 75 74 73 74 73 73 74 74 73 73 73 73 73 73 73 72 72 71 70 71 66 67 72 72 72 70 71 72
64 68 70 76 77 75 75 75 75 75 74 74 74 75 75 74 73 73 72 73 74 73 73 73 72 72 71 71 71 71 71 72 72 72 67 63 63 71 71 73 72 71 71
65 66 73 76 75 75 76 75 76 75 75 73 75 75 74 73 73 73 73 73 73 72 71 71 70 71 71 71 71 72 71 71 72 73 69 67 66 70 72 72 73 71 71
65 67 75 76 76 75 75 75 75 76 73 73 74 75 74 74 73 73 73 72 72 71 71 70 70 71 71 72 72 72 72 72 73 70 71 68 66 70 72 72 70 71 71
65 67 71 76 76 76 75 76 75 75 74 74 74 74 74 74 74 73 72 71 71 70 71 72 73 74 75 75 75 76 75 75 72 70 70 67 67 68 71 73 72 72 71
64 65 70 75 76 75 73 73 74 75 73 75 74 73 73 73 72 72 72 72 72 73 74 75 75 76 76 76 77 77 76 75 70 69 70 67 71 71 71 73 73 73 72
66 67 70 71 74 76 73 74 75 73 73 73 73 73 72 73 72 72 72 72 73 74 75 75 75 75 76 76 77 77 77 74 71 68 68 67 71 69 69 70 73 74 73
68 67 69 72 69 69 68 75 76 76 73 73 73 73 72 73 73 73 73 73 75 75 75 75 75 75 76 77 76 76 76 75 64 65 68 68 71 70 72 73 71 73 74
66 68 68 68 70 70 69 72 74 74 74 73 73 73 73 69 69 70 72 74 75 75 74 74 75 75 76 76 75 74 75 60 61 63 65 74 73 72 72 73 73 74 74
65 65 66 67 67 69 64 70 68 68 68 70 70 72 68 70 71 70 72 73 73 72 73 73 73 75 74 64 63 72 61 60 61 62 66 74 74 73 72 74 74 75 75
65 64 66 67 67 67 66 66 66 67 69 70 72 73 72 72 72 70 69 68 70 70 66 68 69 66 69 67 64 63 63 61 60 61 68 74 74 74 73 73 74 74 74
65 64 65 68 70 67 68 66 66 66 67 66 69 74 74 70 72 72 68 69 72 68 71 69 67 70 71 70 68 67 65 61 60 60 67 73 74 75 74 73 73 72 74
66 65 66 69 71 69 70 68 68 67 66 68 70 72 73 71 72 70 71 69 69 69 68 69 70 71 71 67 68 69 67 66 63 60 61 73 73 74 74 73 72 71 71
66 65 65 68 69 68 69 73 71 68 69 68 69 71 75 72 73 71 71 70 69 69 70 70 73 73 70 67 67 70 70 66 66 65 60 64 72 73 74 73 73 71 71
66 65 64 66 67 68 71 72 70 68 66 68 69 73 73 74 74 75 71 70 70 71 73 71 71 68 66 65 67 65 66 66 64 66 64 63 65 72 74 74 74 73 72
66 66 65 62 65 68 70 71 68 67 67 67 68 69 72 72 73 73 69 68 70 70 69 68 66 66 66 66 66 65 66 67 67 66 64 65 64 63 71 72 71 72 71
66 67 67 66 66 68 70 69 70 72 70 68 68 68 71 71 70 72 68 68 72 67 66 66 66 69 68 68 66 65 66 66 64 61 66 67 67 67 66 70 68 70 70
67 68 68 67 69 70 68 71 69 68 69 69 68 68 72 70 72 73 70 73 72 66 67 70 73 72 70 67 67 66 65 64 62 62 64 64 66 68 67 69 68 68 70
68 69 70 68 71 70 68 68 67 67 66 66 67 72 73 72 72 74 70 72 72 70 73 74 73 73 68 67 67 63 63 62 63 62 63 64 66 66 67 68 68 69 68
67 69 70 69 71 71 68 69 67 68 66 64 66 70 72 72 72 72 75 72 73 70 74 75 75 74 72 71 68 66 59 58 60 60 64 64 66 66 66 67 69 70 69
66 69 71 70 71 71 72 70 72 72 72 69 67 66 67 71 72 73 74 75 75 75 69 75 74 74 72 70 73 71 61 56 59 62 66 66 68 66 66 66 68 69 70
65 67 70 72 71 71 73 73 75 68 66 64 65 64 65 70 71 71 74 75 76 72 75 73 73 77 77 75 71 77 74 70 65 59 65 66 69 65 66 63 62 62 64
64 65 68 71 73 73 73 74 70 72 66 66 66 71 73 72 72 70 71 73 75 72 74 77 76 77 75 73 73 69 70 69 70 68 64 69 70 63 60 60 58 58 60
63 64 66 70 74 74 74 74 75 74 72 67 69 66 66 64 65 70 71 73 74 75 74 75 79 76 77 74 70 69 70 72 71 69 63 67 69 67 61 59 58 58 57